This demonstration page uses our WeatherBlox Daily Observations layout. Learn more.

Left ArrowRight Arrow

31.84235, -102.49876

Hourly Observations for May 14, 2017

Temp ( °F °C ) Dew Point ( °F °C ) Humidity (%) Winds ( mph kmh ) Pressure ( in mb ) Visibility ( mi km ) Precip ( " mm )
12:53 am 00:53 Clear 73 22.8 44 6.7 35 35 SE 12 19 29.77 1008 10 16 0.00 0.00
1:53 am 01:53 Clear 70 21.1 44 6.7 39 39 SE 9 15 29.76 1008 10 16 0.00 0.00
2:53 am 02:53 Clear 69 20.6 47 8.3 45 45 SSE 8 13 29.75 1007 10 16 0.00 0.00
3:53 am 03:53 Clear 72 22.2 49 9.4 44 44 S 15 24 29.73 1007 10 16 0.00 0.00
4:53 am 04:53 Clear 71 21.7 49 9.4 46 46 S 14 22 29.74 1007 10 16 0.00 0.00
5:53 am 05:53 Clear 70 21.1 49 9.4 47 47 S 8 13 29.75 1008 10 16 0.00 0.00
6:53 am 06:53 Sunny 69 20.6 50 10 51 51 S 9 15 29.75 1008 10 16 0.00 0.00
7:53 am 07:53 Sunny 70 21.1 50 10 49 49 S 13 20 29.76 1008 10 16 0.00 0.00
8:53 am 08:53 Sunny 74 23.3 52 11.1 46 46 S 14 22 29.77 1008 10 16 0.00 0.00
9:53 am 09:53 Sunny 78 25.6 52 11.1 40 40 S 14 22 29.78 1009 10 16 0.00 0.00
10:53 am 10:53 Sunny 83 28.3 50 10 32 32 S 14 22 29.78 1008 10 16 0.00 0.00
11:53 am 11:53 Sunny 86 30 48 8.9 27 27 SSW 12 19 29.77 1008 10 16 0.00 0.00
12:53 pm 12:53 Sunny 90 32.2 47 8.3 23 23 S 8 13 29.76 1008 10 16 0.00 0.00
1:53 pm 13:53 Sunny 92 33.3 45 7.2 20 20 undefined N/A 29.75 1007 10 16 0.00 0.00
2:53 pm 14:53 Sunny 93 33.9 44 6.7 18 18 SSE 8 13 29.72 1007 10 16 0.00 0.00
3:53 pm 15:53 Sunny 95 35 40 4.4 15 15 SSE 9 15 29.69 1005 10 16 0.00 0.00
4:53 pm 16:53 Sunny 97 36.1 43 6.1 16 16 SSE 15 24 29.67 1005 10 16 0.00 0.00
5:53 pm 17:53 Sunny 95 35 45 7.2 18 18 S 20 31 29.66 1004 10 16 0.00 0.00
6:53 pm 18:53 Partly Cloudy with Light Rain 91 32.8 48 8.9 23 23 S 16 26 29.65 1004 10 16 0.00 0.03
7:31 pm 19:31 Partly Cloudy with Nearby Thunderstorms 81 27.2 49 9.4 33 33 NW 13 20 29.65 1004 10 16 0.00 0.03
7:46 pm 19:46 Partly Cloudy with Thunderstorms 84 28.9 48 8.9 29 29 NW 8 13 29.62 1003 10 16 0.00 0.03
7:53 pm 19:53 Mostly Cloudy with Thunderstorms 86 30 43 6.1 22 22 undefined N/A 29.70 1006 10 16 0.00 0.03
10:53 pm 22:53 Clear 83 28.3 52 11.1 34 34 SSE 14 22 29.73 1007 10 16 0.00 0.00
11:53 pm 23:53 Clear 80 26.7 53 11.7 39 39 SSE 12 19 29.74 1007 10 16 0.00 0.00

Powered by AerisWeather